Terminal Aerodrome Forecast
Issued by NWS

Home | Current Version | Previous Version | Text Only | Print | Product List | Glossary On
Versions: 1 2 3 4 5 6 7 8 9 10 11 12 13 14 15 16 17 18 19 20 21 22 23
000
FTUS45 KSLC 011120
TAFSGU
TAF
KSGU 011120Z 0112/0212 VRB05KT P6SM SCT070 SCT100
     FM012000 32012KT P6SM SCT100
     FM020100 VRB05KT P6SM SCT100
      AMD LTD TO CLD VIS AND WIND=

USA.gov is the U.S. government's official web portal to all federal, state and local government web resources and services.